OBJECT K

Satellite information

Favourite Embed

Satellite Type and Status

UNKNOWNDECAYED

Key statistics

Satellite OBJECT K at a glance.

Uptime

514

Days in orbit

Revolutions

≈ 16.4

Per day

Orbit

SSO

Sun Synchronous Orbit

Inclination

97.3

Latest

Satellite identification and parameters

Extended collection of information and parameters for OBJECT K.

Object identification

Identified? True

Debris? False

Object name: OBJECT K

International designator: 2023-185K

Object number (NORAD): 58471

Object ID (CCSDS): 58471

Country: TO BE DETERMINED/UNKNOWN (TBD)

Current information (Y/N): Y

RCS size: SMALL

Orbital parameters

Decay date: April 28, 2025

Period: 87.996 minutes

Inclination: 97.3435 deg

SMA: 6553.43 km

Apoapsis: 185.266 km

Periapsis: 165.324 km

RAAN: 194.4543 deg

Eccentricy: 0.0015215

Argument of periapsis: 263.29 deg

Mean anomaly: 96.6666 deg

Mean motion: 16.36438907 rev/day

Mean motion (dot): 0.10095164 rev/day2

B* drag term: 0.0011708 1/REarth

Two-line elements (TLE)

Creation date: April 25, 2025, 8:55 p.m.

Reference frame: TEME

Reference center: EARTH

Epoch: April 24, 2025, 8:43 p.m. UTC

TLE line 0: 0 OBJECT K

TLE line 1: 1 58471U 23185K 25114.86339687 .10095164 24939-5 11708-2 0 9994

TLE line 2: 2 58471 97.3435 194.4543 0015215 263.2900 96.6666 16.36438907 78320

Live tracking on map

Satellite OBJECT K has decayed and is no longer in orbit. No tracking available.

In-orbit conjunctions

Satellite OBJECT K has decayed and is no longer in orbit. No conjunctions available.

Associated space launch

Note: Name of payload is provisional. First launch of an ultimately 5 reconnaissance satellites for the South Korean Defense Acquisition Program Administration (DAPA), with 1 satellite featuring an electro-optical infrared (EO/IR) telescope. The other 4 synthetic aperture radar (SAR) satellites are to be launched at a later date. They will be launched to low Earth orbit between 600 and 700 km by 2025, enabling South Korea’s military to observe the nuclear-armed neighbor’s key military facilities every two hours with 30-50 centimeters resolution imagery, according to a 2019 report produced by the Korea Institute of S&T Evaluation and Planning. The project is lead by the Korean Agency for Defense Development (ADD) and Korea Aerospace Research Institute (KARI), with input from Korea Aerospace Industries (KAI), Hanwha Systems and Thales Alenia Space. ESA's EIRSAT-1 is also onboard as a rideshare passenger. This 2U cubesat carries three experiments, including a novel gamma ray detector to study some of the most luminous explosions in the universe.

OBJECT K was lifted into orbit during the mission ‘Falcon 9 Block 5 | 425 Project Flight 1 & rideshare’, on board a Falcon 9 space rocket.

The launch took place on Dec. 1, 2023, 6:19 p.m. from Space Launch Complex 4E.

For more information about the launch, click the button.

Launch to space Falcon 9 Block 5 | 425 Project Flight 1 & rideshare
Falcon 9 Block 5 | 425 Project Flight 1 & rideshare

Agency: N/A

Status: Launch Successful

Launch date: Dec. 1, 2023, 6:19 p.m. UTC

Rocket: Falcon 9

Launch pad: Space Launch Complex 4E

Location: Vandenberg SFB, CA, USA

...

Latest news about this satellite

News about space launch
Launch Roundup: Soyuz resupplies the ISS; SpaceX launches more Starlink satellites

This week, SpaceX continued its incredible launch cadence with two more launches of Falcon 9, a Soyuz 2.1a resupplied the International Space Station (ISS), and three missions launched consecutively out of China.


Newsletter sign-up

Weekly statistics, charts and insights to help you stay on top of the space industry.